[[{"header":{"parameterUnit":"m.s-1","parameterCategory":1,"la1":30.2991,"la2":30.254,"lo1":-89.0895,"lo2":-89.0444,"dy":0.0017,"dx":0.0017,"nx":28,"ny":28,"refTime":"2024-07-20T09:00:00:Z","depth":0,"parameterNumber":2,"parameterNumberName":"U-component_of_WINDS"},"data":[0,0,0,0,0,0,0,0,0,0,0,0,0,0,0,0,0,0,0,0,0,0,0,0,0,0,0,0,0,0,0,0,0,0,0,0,0,0,0,0,0,0,0,0,0,0,0,0,0,0,0,0,0,0,0,0,0,0,3.1242,3.1244,0,3.1343,3.1344,3.1345,3.1344,3.1342,3.1341,3.134,3.1442,3.1446,3.145,0,0,0,0,0,0,0,0,0,0,0,0,0,3.105,3.1053,3.1242,3.1244,3.1245,3.1343,3.1344,3.1345,3.1344,3.1342,3.134,3.1339,3.1441,3.1445,3.145,0,0,0,0,0,0,0,0,0,0,0,0,0,3.114,3.1055,3.1242,3.1256,3.1258,3.1342,3.1344,3.1346,3.1344,3.1342,3.134,3.1338,3.1439,3.1445,3.1451,3.1528,0,0,3.1469,3.1472,0,0,0,0,0,0,0,0,3.1135,3.1147,3.1253,3.1255,3.1258,3.1329,3.1314,3.1407,3.1345,3.1311,3.134,3.1337,3.1406,3.1414,3.1438,3.1533,3.1537,3.147,3.1473,3.1476,3.1478,0,0,0,0,0,0,0,3.1129,3.1143,3.1282,3.1254,3.1257,3.1257,3.1268,3.1331,3.1369,3.1314,3.1314,3.1326,3.1407,3.1432,3.144,3.1539,3.1469,3.1475,3.1478,3.1481,3.1703,3.1705,0,0,0,0,0,0,3.112,3.1138,3.1279,3.1285,3.119,3.1262,3.1274,3.1308,3.1368,3.1375,3.1328,3.1326,3.1423,3.1433,3.1444,3.1539,3.1476,3.1481,3.1485,3.1701,3.1704,3.1706,0,0,0,0,0,0,3.1116,3.1132,3.1275,3.1212,3.123,3.1268,3.1306,3.1311,3.1336,3.1378,3.1385,3.1347,3.1422,3.1435,3.1507,3.1542,3.1484,3.149,3.1698,3.1702,3.1705,3.1728,0,0,0,0,0,0,3.111,3.1131,3.116,3.1212,3.1233,3.1337,3.1308,3.1314,3.1346,3.1345,3.1398,3.1405,3.1421,3.1498,3.1513,3.1549,3.1494,3.1695,3.17,3.1704,3.1725,3.1732,3.1739,0,0,0,0,0,3.1103,3.1162,3.1162,3.1179,3.1271,3.1339,3.135,3.1368,3.1349,3.1379,3.1407,3.1403,3.1536,3.1506,3.1522,3.1561,3.1693,3.1699,3.1704,3.1721,3.1731,3.1738,0,0,0,0,0,0,3.1113,3.1169,3.1169,3.1247,3.1288,3.1338,3.1376,3.1377,3.1425,3.1421,3.1441,3.1453,3.1525,3.155,3.1516,3.1639,3.1612,3.1621,3.162,3.1629,3.1636,3.1628,3.1499,0,0,0,0,0,3.1124,3.1175,3.1221,3.1286,3.1306,3.1338,3.1368,3.1379,3.1422,3.1439,3.1472,3.1514,3.1565,3.1599,3.1648,3.1728,3.174,3.1763,3.177,3.1776,3.1783,3.1828,3.1839,3.1723,3.1723,3.1723,0,0,3.1148,3.1185,3.1216,3.1289,3.1322,3.1374,3.1352,3.1408,3.1447,3.1448,3.1518,3.1543,3.1592,3.1668,3.1704,3.1691,3.1818,3.1782,3.1786,3.1791,3.1834,3.1845,3.1855,3.1727,3.1726,3.1726,0,0,3.1218,3.1251,3.1308,3.1342,3.1393,3.1414,3.1428,3.1478,3.1495,3.1566,3.1568,3.1614,3.1702,3.1737,3.1766,3.1851,3.1849,3.1866,3.1903,3.1947,3.1956,3.1964,3.1994,3.2005,3.1874,3.1874,3.1874,0,3.1241,3.1319,3.1338,3.1394,3.1427,3.143,3.1489,3.1521,3.1585,3.1607,3.1592,3.1704,3.1736,3.1821,3.1842,3.1866,3.1882,3.186,3.1953,3.1961,3.1969,3.1998,3.201,3.1875,3.1875,3.1875,3.1875,0,3.1345,3.14,3.144,3.1503,3.154,3.1597,3.1624,3.166,3.1667,3.169,3.1762,3.1802,3.186,3.1881,3.1889,3.1968,3.1959,3.1948,3.1922,3.1982,3.2009,3.2021,3.1878,3.1877,3.1877,3.1876,0,0,3.1423,3.1496,3.1511,3.1539,3.1596,3.1638,3.1696,3.1753,3.1783,3.1828,3.1877,3.1952,3.1943,3.1976,3.1988,3.2027,3.2092,3.2012,3.2013,3.2025,3.2182,3.2189,3.2202,3.2091,3.2094,3.2095,3.2178,0,3.1499,3.1602,3.1621,3.171,3.1761,3.1766,3.1816,3.1857,3.188,3.1926,3.1952,3.2005,3.1989,3.2009,3.2047,3.2076,3.2123,3.207,3.2137,3.2139,3.2125,3.2216,3.2224,3.23,3.2189,3.2191,3.2192,0,3.1601,3.1649,3.1743,3.1794,3.1816,3.1861,3.1916,3.196,3.2006,3.2021,3.2058,3.2066,3.2127,3.2098,3.2182,3.2145,3.2174,3.2192,3.2196,3.2202,3.2169,3.2225,3.2324,3.2335,3.2209,3.2208,3.2207,0,3.1648,3.1736,3.1804,3.1829,3.189,3.1921,3.1948,3.1993,3.2026,3.2074,3.2096,3.215,3.218,3.2222,3.2244,3.2221,3.2327,3.2299,3.234,3.234,3.2362,3.236,3.2466,3.2381,3.2381,3.238,3.238,0,3.1731,3.1789,3.1827,3.1869,3.1934,3.1956,3.2019,3.2046,3.2086,3.2133,3.214,3.2185,3.2212,3.226,3.2278,3.2345,3.2359,3.2372,3.2376,3.2371,3.237,3.239,3.2385,3.2384,3.2383,3.2382,3.2382,0,3.1795,3.1822,3.1897,3.1949,3.1964,3.2009,3.2054,3.2095,3.2118,3.2178,3.2194,3.2231,3.2288,3.2315,3.2386,3.2398,3.2474,3.2475,3.2459,3.246,3.2499,3.2495,3.2622,3.264,3.2543,3.2544,3.2545,0,3.1845,3.189,3.1947,3.1979,3.2007,3.2059,3.2094,3.2117,3.2153,3.221,3.2244,3.2302,3.2349,3.2441,3.2474,3.2529,3.2531,3.2572,3.2539,3.2533,3.2531,3.2528,3.2533,3.2577,3.2578,3.2579,3.258,0,3.1932,3.1944,3.1993,3.2048,3.2089,3.2134,3.2177,3.2203,3.2234,3.2273,3.2332,3.2369,3.2442,3.25,3.2557,3.2585,3.2588,3.259,3.2602,3.2597,3.2586,3.2593,3.2475,3.2587,3.2586,3.2585,3.2585,3.2585,3.1991,3.2031,3.2078,3.2133,3.2168,3.2209,3.225,3.2279,3.2329,3.239,3.2401,3.2464,3.2511,3.2588,3.2618,3.2667,3.2658,3.2676,3.268,3.2684,3.2686,3.2579,3.2678,3.2678,3.2678,3.2677,3.2677,0,3.2078,3.2109,3.2159,3.222,3.2264,3.2263,3.2312,3.2348,3.2403,3.2446,3.2493,3.2561,3.2618,3.2656,3.2713,3.2745,3.2748,3.2759,3.2757,3.2763,3.2691,3.2675,3.2756,3.2756,3.2756,3.2756,3.2756,3.2756,3.2129,3.2197,3.2214,3.2301,3.2331,3.2393,3.242,3.2458,3.2492,3.2568,3.2615,3.264,3.2681,3.2741,3.2793,3.2803,3.2823,3.2835,3.2844,3.2777,3.2768,3.276,3.2745,3.2839,3.284,3.2912,3.2913,3.2913]},{"header":{"parameterUnit":"m.s-1","parameterCategory":1,"la1":30.2991,"la2":30.254,"lo1":-89.0895,"lo2":-89.0444,"dy":0.0017,"dx":0.0017,"nx":28,"ny":28,"refTime":"2024-07-20T09:00:00:Z","depth":0,"parameterNumber":3,"parameterNumberName":"V-component_of_WINDS"},"data":[0,0,0,0,0,0,0,0,0,0,0,0,0,0,0,0,0,0,0,0,0,0,0,0,0,0,0,0,0,0,0,0,0,0,0,0,0,0,0,0,0,0,0,0,0,0,0,0,0,0,0,0,0,0,0,0,0,0,-0.1771,-0.1771,0,-0.1806,-0.1807,-0.1807,-0.1819,-0.1819,-0.1819,-0.1819,-0.1856,-0.1857,-0.1858,0,0,0,0,0,0,0,0,0,0,0,0,0,-0.1716,-0.1717,-0.1771,-0.1771,-0.1772,-0.1806,-0.1807,-0.1807,-0.1819,-0.1819,-0.1819,-0.1819,-0.1855,-0.1857,-0.1858,0,0,0,0,0,0,0,0,0,0,0,0,0,-0.1744,-0.1717,-0.1771,-0.1782,-0.1783,-0.1806,-0.1807,-0.1807,-0.1819,-0.1819,-0.1819,-0.1819,-0.1855,-0.1857,-0.1858,-0.1872,0,0,-0.1863,-0.1864,0,0,0,0,0,0,0,0,-0.1742,-0.1746,-0.178,-0.1781,-0.1783,-0.1808,-0.1801,-0.1829,-0.1819,-0.1806,-0.1819,-0.1819,-0.184,-0.1843,-0.185,-0.1874,-0.1876,-0.1863,-0.1864,-0.1865,-0.1866,0,0,0,0,0,0,0,-0.174,-0.1745,-0.1785,-0.1781,-0.1782,-0.1786,-0.179,-0.1806,-0.1824,-0.1807,-0.1808,-0.1812,-0.1841,-0.1848,-0.1851,-0.1876,-0.1863,-0.1865,-0.1866,-0.1867,-0.1915,-0.1915,0,0,0,0,0,0,-0.1736,-0.1743,-0.1784,-0.1786,-0.1762,-0.1787,-0.1791,-0.18,-0.1824,-0.1827,-0.1812,-0.1812,-0.1846,-0.1849,-0.1852,-0.1871,-0.1865,-0.1867,-0.1868,-0.1915,-0.1915,-0.1915,0,0,0,0,0,0,-0.1735,-0.174,-0.1782,-0.1765,-0.177,-0.1788,-0.1798,-0.1801,-0.1809,-0.1827,-0.1831,-0.1816,-0.1846,-0.185,-0.1868,-0.1873,-0.1867,-0.1869,-0.1914,-0.1915,-0.1915,-0.1908,0,0,0,0,0,0,-0.1734,-0.1739,-0.1745,-0.1765,-0.1771,-0.1797,-0.1798,-0.1802,-0.1811,-0.1812,-0.1832,-0.1836,-0.1846,-0.1865,-0.1869,-0.1875,-0.187,-0.1914,-0.1914,-0.1915,-0.1908,-0.1908,-0.1909,0,0,0,0,0,-0.1732,-0.1742,-0.1745,-0.175,-0.1778,-0.1797,-0.1801,-0.1812,-0.1812,-0.1817,-0.183,-0.1835,-0.1871,-0.1867,-0.1871,-0.1878,-0.1914,-0.1914,-0.1915,-0.1908,-0.1908,-0.1909,0,0,0,0,0,0,-0.1722,-0.1744,-0.1748,-0.1765,-0.1779,-0.1799,-0.1806,-0.1812,-0.1826,-0.1827,-0.184,-0.1845,-0.1861,-0.1871,-0.1866,-0.1893,-0.1893,-0.1894,-0.1886,-0.1886,-0.1887,-0.1884,-0.1872,0,0,0,0,0,-0.1722,-0.1734,-0.1754,-0.1766,-0.1773,-0.1788,-0.1797,-0.1805,-0.182,-0.1826,-0.1839,-0.1854,-0.1869,-0.1878,-0.1893,-0.191,-0.1915,-0.1916,-0.1917,-0.1917,-0.1918,-0.1928,-0.193,-0.1917,-0.1917,-0.1917,0,0,-0.1721,-0.1735,-0.1742,-0.1765,-0.1776,-0.179,-0.1793,-0.1807,-0.1818,-0.1828,-0.1845,-0.1856,-0.1873,-0.189,-0.1899,-0.1899,-0.1923,-0.1918,-0.1917,-0.1919,-0.1929,-0.193,-0.1931,-0.1918,-0.1918,-0.1918,0,0,-0.1727,-0.1739,-0.1751,-0.1763,-0.178,-0.1791,-0.1794,-0.1813,-0.182,-0.1838,-0.1846,-0.1859,-0.1884,-0.1896,-0.1905,-0.1917,-0.1923,-0.1921,-0.1923,-0.1933,-0.1934,-0.1935,-0.1939,-0.1941,-0.1923,-0.1923,-0.1923,0,-0.1725,-0.1745,-0.1757,-0.1771,-0.178,-0.179,-0.1803,-0.1814,-0.1835,-0.1842,-0.1842,-0.1874,-0.1887,-0.1907,-0.191,-0.1917,-0.1922,-0.1919,-0.1933,-0.1934,-0.1935,-0.1939,-0.1941,-0.1922,-0.1922,-0.1922,-0.1922,0,-0.1741,-0.1755,-0.1763,-0.1783,-0.1794,-0.1807,-0.1822,-0.1831,-0.1838,-0.1848,-0.1867,-0.1882,-0.19,-0.1906,-0.1912,-0.1927,-0.1927,-0.193,-0.193,-0.1935,-0.194,-0.1942,-0.1922,-0.1922,-0.1922,-0.1922,0,0,-0.1742,-0.1769,-0.1772,-0.1782,-0.1802,-0.1813,-0.1827,-0.1844,-0.1853,-0.1867,-0.188,-0.1901,-0.1904,-0.1914,-0.1923,-0.1931,-0.194,-0.1933,-0.1934,-0.1934,-0.1959,-0.1957,-0.1959,-0.1944,-0.1945,-0.1945,-0.1957,0,-0.1752,-0.1776,-0.1787,-0.1807,-0.1821,-0.1831,-0.1843,-0.1857,-0.1867,-0.188,-0.1892,-0.1907,-0.1909,-0.1916,-0.1925,-0.1937,-0.1945,-0.1937,-0.1956,-0.1957,-0.1952,-0.1961,-0.1959,-0.197,-0.1959,-0.196,-0.196,0,-0.1765,-0.178,-0.1801,-0.182,-0.1826,-0.1837,-0.1854,-0.1867,-0.1883,-0.189,-0.1902,-0.191,-0.1926,-0.1925,-0.1947,-0.1941,-0.195,-0.1957,-0.1958,-0.196,-0.1959,-0.1964,-0.1974,-0.1976,-0.1963,-0.1962,-0.1962,0,-0.1765,-0.1789,-0.1805,-0.1813,-0.1836,-0.1843,-0.1853,-0.1869,-0.1879,-0.1895,-0.1901,-0.1918,-0.1928,-0.1941,-0.1954,-0.1952,-0.1975,-0.1975,-0.1982,-0.1982,-0.1986,-0.1986,-0.1998,-0.1992,-0.1992,-0.1992,-0.1991,0,-0.1774,-0.1786,-0.1805,-0.1815,-0.183,-0.1843,-0.1857,-0.1868,-0.1882,-0.1895,-0.1905,-0.1916,-0.1932,-0.1946,-0.1957,-0.1974,-0.1978,-0.1984,-0.1987,-0.1984,-0.1983,-0.199,-0.199,-0.1992,-0.1992,-0.1992,-0.1992,0,-0.1775,-0.1788,-0.1806,-0.1826,-0.1832,-0.1842,-0.1859,-0.1869,-0.188,-0.1896,-0.1901,-0.1918,-0.1935,-0.1949,-0.1971,-0.1978,-0.1996,-0.1999,-0.1991,-0.1992,-0.1998,-0.1998,-0.2016,-0.2019,-0.201,-0.201,-0.201,0,-0.178,-0.179,-0.1811,-0.182,-0.183,-0.1844,-0.1855,-0.1868,-0.1878,-0.1898,-0.1906,-0.1924,-0.1939,-0.1966,-0.198,-0.1998,-0.2002,-0.2007,-0.2004,-0.2001,-0.2002,-0.2002,-0.2003,-0.2007,-0.2007,-0.2007,-0.2007,0,-0.1788,-0.1794,-0.1809,-0.1825,-0.1837,-0.1851,-0.1865,-0.1872,-0.1888,-0.19,-0.1917,-0.1928,-0.1951,-0.1969,-0.1988,-0.1999,-0.2006,-0.2007,-0.201,-0.2007,-0.2002,-0.2005,-0.1992,-0.2007,-0.2007,-0.2007,-0.2007,-0.2007,-0.1792,-0.1802,-0.1818,-0.1834,-0.1846,-0.1859,-0.187,-0.1882,-0.1896,-0.1916,-0.1923,-0.1941,-0.1958,-0.1984,-0.1995,-0.201,-0.2011,-0.2014,-0.2015,-0.2016,-0.2016,-0.1999,-0.2013,-0.2013,-0.2013,-0.2013,-0.2014,0,-0.1801,-0.1812,-0.1826,-0.1846,-0.1858,-0.1863,-0.1879,-0.189,-0.1905,-0.192,-0.1935,-0.1955,-0.1972,-0.1989,-0.2007,-0.2016,-0.2019,-0.202,-0.202,-0.2022,-0.2014,-0.201,-0.2017,-0.2017,-0.2017,-0.2017,-0.2017,-0.2017,-0.1807,-0.1824,-0.1832,-0.1855,-0.1866,-0.1883,-0.1892,-0.1904,-0.1916,-0.1938,-0.1953,-0.1963,-0.1979,-0.1999,-0.2015,-0.202,-0.2026,-0.2026,-0.2032,-0.2023,-0.2023,-0.2022,-0.2019,-0.2027,-0.2027,-0.2039,-0.2039,-0.2039]}]]